Temp
6 6 6 5 5 4 3 3 2 2 2 1 1 0 -0 -0 -1 -1 -1 -3 -3 -3 -4 -4 -4 -4 -3 -3 -2 -2 -1 -1 1 2 4 5 5 4 3 4 5 6 5 6 6
6 5 5 4 4 3 3 2 1 1 0 -1 -2 -2 -2 -3 -3 -4 -4 -6 -7 -6 -6 -6 -7 -6 -5 -5 -4 -2 -3 -1 -1 1 3 4 5 4 2 3 5 5 5 5 6
5 5 4 3 3 3 1 1 1 -0 -1 -1 -2 -3 -4 -5 -8 -7 -6 -7 -9 -9 -8 -8 -8 -8 -6 -5 -5 -3 -2 -2 -2 -1 1 2 3 3 1 2 4 4 4 6 6
5 4 4 4 3 2 1 1 0 -0 -1 -2 -3 -4 -4 -6 -7 -7 -9 -9 -9 -10 -10 -10 -10 -10 -8 -6 -5 -5 -3 -3 -2 -2 -1 0 1 2 1 2 3 4 5 6 6
5 4 4 4 3 2 1 0 -0 -2 -2 -3 -3 -4 -5 -9 -9 -10 -10 -10 -10 -10 -10 -10 -10 -10 -9 -8 -6 -5 -5 -4 -3 -1 -2 -1 -0 1 1 1 2 3 3 4 5
4 4 4 3 2 2 1 0 -1 -2 -3 -3 -4 -5 -7 -9 -10 -10 -10 -10 -10 -10 -10 -11 -10 -10 -10 -10 -9 -6 -5 -5 -4 -3 -2 -2 -1 -1 0 0 1 2 2 3 3
4 4 3 3 3 2 1 -1 -2 -3 -3 -3 -5 -6 -8 -9 -10 -10 -10 -11 -11 -10 -10 -10 -10 -11 -10 -10 -9 -8 -7 -6 -5 -4 -3 -3 -3 -1 -1 0 0 1 2 2 4
4 4 3 2 2 1 0 -1 -2 -3 -3 -3 -5 -6 -9 -10 -11 -10 -9 -9 -10 -10 -10 -10 -10 -10 -11 -10 -10 -9 -9 -8 -5 -4 -4 -3 -3 -1 -1 -0 0 0 1 2 3
4 3 3 2 2 1 -0 -1 -3 -3 -4 -4 -6 -8 -11 -10 -10 -10 -10 -9 -10 -11 -11 -10 -10 -10 -10 -11 -10 -9 -8 -7 -5 -5 -4 -4 -4 -2 -1 -1 -1 -0 0 1 2
3 3 3 2 1 0 -0 -1 -3 -4 -4 -5 -7 -9 -10 -11 -10 -11 -10 -10 -11 -11 -11 -10 -11 -11 -10 -10 -9 -8 -8 -7 -5 -4 -4 -4 -4 -3 -2 -1 -2 -1 -0 0 1
3 3 3 2 1 0 -0 -2 -2 -3 -5 -7 -9 -11 -11 -11 -11 -10 -9 -10 -11 -11 -11 -11 -11 -11 -10 -10 -10 -10 -9 -10 -8 -5 -5 -4 -4 -2 -3 -2 -2 -1 -0 0 0
2 2 2 2 1 0 -1 -1 -3 -4 -5 -7 -8 -9 -10 -10 -12 -9 -9 -10 -12 -11 -11 -11 -11 -12 -11 -11 -11 -10 -10 -9 -8 -7 -6 -4 -3 -3 -3 -2 -2 -2 -1 -0 -0
2 2 2 2 1 0 -1 -1 -4 -4 -5 -7 -8 -9 -9 -11 -12 -11 -10 -10 -12 -11 -11 -12 -12 -12 -12 -12 -11 -11 -10 -9 -8 -7 -6 -5 -4 -4 -2 -3 -3 -2 -1 -1 -0
2 2 2 2 1 0 -1 -2 -4 -5 -6 -6 -7 -9 -10 -9 -11 -11 -11 -10 -11 -12 -12 -12 -13 -12 -12 -11 -11 -10 -9 -9 -8 -7 -6 -6 -2 -3 -3 -3 -3 -2 -1 -1 -1
1 1 1 1 1 0 -1 -3 -4 -5 -4 -6 -8 -8 -11 -12 -12 -10 -11 -10 -11 -12 -13 -12 -12 -12 -12 -12 -11 -11 -9 -8 -8 -7 -7 -6 -6 -1 -2 -2 -2 -3 -2 -2 -1
1 1 1 1 1 -0 -1 -3 -4 -4 -6 -7 -7 -9 -11 -11 -12 -12 -12 -11 -10 -11 -12 -12 -12 -13 -13 -11 -10 -10 -8 -8 -7 -7 -6 -6 -6 -8 -5 -5 -3 -3 -2 -2 -2
1 1 1 0 0 0 -1 -3 -4 -6 -8 -7 -8 -10 -11 -10 -10 -12 -12 -11 -14 -13 -12 -11 -11 -13 -13 -11 -10 -11 -9 -7 -6 -6 -5 -5 -5 -11 -7 -8 -5 -3 -3 -2 -2
1 0 0 1 -0 0 -1 -4 -6 -8 -10 -8 -9 -9 -10 -11 -11 -11 -12 -12 -13 -14 -12 -12 -10 -13 -13 -13 -13 -10 -9 -8 -5 -5 -4 -6 -5 -10 -9 -9 -6 -4 -3 -3 -2
1 -0 0 -0 -1 -0 -1 -5 -8 -8 -8 -9 -10 -9 -10 -10 -12 -11 -12 -12 -13 -14 -14 -13 -11 -12 -13 -13 -11 -10 -10 -10 -10 -5 -4 -6 -8 -9 -9 -8 -6 -4 -4 -4 -3
1 0 -0 -0 -1 -0 -1 -6 -7 -7 -7 -9 -10 -10 -11 -11 -11 -12 -12 -12 -11 -13 -14 -14 -13 -11 -12 -11 -11 -11 -10 -10 -8 -4 -4 -7 -9 -12 -8 -7 -6 -6 -5 -4 -4
1 0 -1 -1 -1 -1 -3 -5 -6 -6 -7 -8 -9 -9 -10 -11 -10 -12 -12 -12 -12 -11 -13 -14 -14 -11 -11 -13 -14 -11 -12 -12 -10 -10 -6 -5 -10 -14 -13 -10 -7 -7 -6 -5 -4
0 -0 -1 -1 -1 -2 -4 -4 -5 -6 -6 -7 -8 -9 -10 -10 -9 -11 -11 -12 -12 -11 -12 -13 -13 -12 -11 -12 -13 -13 -12 -12 -10 -9 -9 -8 -11 -13 -12 -10 -9 -8 -7 -6 -5
1 -0 -1 -2 -2 -3 -3 -4 -5 -5 -6 -7 -8 -9 -9 -10 -10 -10 -10 -11 -11 -11 -12 -12 -12 -10 -9 -10 -12 -13 -12 -12 -11 -11 -11 -9 -11 -12 -11 -10 -10 -9 -8 -7 -5
0 -1 -1 -2 -2 -3 -3 -4 -4 -5 -6 -7 -7 -8 -9 -9 -10 -9 -9 -10 -11 -11 -11 -11 -13 -13 -11 -13 -14 -13 -13 -12 -11 -10 -12 -13 -13 -12 -11 -10 -10 -10 -8 -7 -6
-1 -2 -2 -3 -3 -3 -3 -4 -4 -5 -5 -6 -7 -8 -9 -9 -9 -9 -9 -9 -10 -11 -10 -11 -12 -12 -13 -12 -13 -13 -13 -13 -12 -14 -12 -13 -13 -13 -12 -11 -10 -9 -9 -8 -7
-1 -1 -1 -2 -3 -3 -4 -4 -4 -4 -5 -6 -6 -7 -7 -8 -9 -9 -9 -9 -10 -10 -10 -11 -11 -11 -12 -12 -12 -13 -12 -13 -12 -12 -13 -13 -13 -13 -12 -12 -11 -10 -9 -8 -8
-1 -1 -1 -2 -2 -3 -4 -4 -4 -5 -5 -5 -6 -6 -6 -7 -7 -8 -8 -9 -9 -10 -10 -10 -10 -11 -10 -11 -11 -11 -12 -12 -13 -13 -12 -13 -12 -12 -12 -12 -11 -11 -10 -9 -8
Height
3104 3099 3094 3089 3083 3078 3073 3069 3064 3059 3055 3051 3047 3043 3038 3034 3028 3022 3020 3017 3014 3012 3007 3010 3013 3017 3021 3023 3029 3033 3031 3015 3015 3038 3049 3057 3058 3058 3065 3074 3081 3087 3088 3094 3092
3104 3098 3093 3087 3081 3076 3071 3065 3060 3056 3051 3047 3044 3040 3035 3029 3024 3016 3013 3009 3007 3004 3004 3004 3006 3009 3012 3014 3019 3018 3014 2994 3031 3038 3043 3050 3053 3056 3056 3063 3070 3075 3079 3084 3089
3103 3097 3091 3085 3079 3074 3068 3062 3058 3052 3046 3040 3034 3028 3022 3017 3015 3010 3007 3005 3002 3000 3000 2999 2998 3001 3003 3006 3009 3009 2996 3016 3021 3029 3035 3042 3046 3049 3047 3050 3060 3065 3070 3079 3083
3103 3096 3089 3084 3078 3071 3066 3060 3053 3047 3041 3037 3033 3025 3018 3012 3019 3008 3004 3000 2997 2995 2995 2994 2994 2995 2995 2997 3001 3000 2998 3007 3014 3022 3025 3030 3037 3035 3039 3047 3057 3064 3066 3073 3075
3102 3095 3089 3083 3077 3070 3064 3058 3053 3045 3041 3038 3031 3024 3016 3012 3006 3001 2999 2995 2993 2989 2988 2989 2989 2990 2989 2988 2989 2988 2993 2999 3006 3010 3015 3021 3023 3031 3033 3042 3051 3056 3059 3064 3066
3101 3095 3089 3083 3076 3069 3062 3056 3049 3044 3041 3036 3030 3021 3014 3012 3002 2996 2993 2990 2987 2983 2981 2981 2983 2984 2983 2982 2982 2981 2981 2986 2995 2998 3005 3008 3013 3024 3029 3037 3042 3047 3052 3056 3059
3102 3096 3089 3081 3075 3067 3060 3055 3049 3045 3041 3036 3029 3019 3016 3009 3001 2995 2989 2982 2977 2975 2973 2974 2975 2978 2980 2980 2979 2978 2976 2978 2982 2990 2995 2999 3003 3000 3021 3031 3035 3039 3044 3049 3053
3103 3096 3088 3082 3074 3066 3060 3054 3049 3045 3040 3035 3026 3019 3013 3006 2999 2992 2983 2977 2971 2965 2964 2968 2969 2970 2973 2977 2977 2976 2973 2972 2979 2984 2987 2997 2993 2999 3012 3022 3026 3031 3037 3042 3048
3104 3097 3089 3082 3075 3068 3061 3054 3047 3045 3039 3033 3026 3015 3010 3005 2996 2988 2980 2972 2967 2962 2959 2962 2965 2967 2971 2973 2976 2975 2973 2971 2976 2978 2987 2986 2986 2997 3006 3013 3020 3026 3031 3035 3042
3105 3097 3090 3083 3076 3068 3061 3053 3047 3044 3042 3032 3025 3016 3010 3001 2995 2987 2981 2972 2966 2963 2962 2962 2964 2966 2968 2969 2968 2971 2971 2969 2970 2978 2979 2982 2983 2995 3001 3005 3013 3020 3026 3030 3035
3105 3098 3092 3084 3075 3067 3060 3051 3045 3045 3041 3036 3030 3021 3012 3006 2999 2988 2979 2974 2969 2968 2964 2963 2965 2964 2965 2965 2966 2967 2966 2966 2964 2967 2966 2973 2978 2986 2996 3000 3008 3014 3021 3026 3030
3105 3099 3092 3085 3076 3067 3060 3054 3048 3046 3041 3037 3029 3023 3014 3006 2997 2990 2983 2975 2971 2970 2967 2967 2967 2965 2964 2963 2965 2966 2966 2964 2965 2965 2966 2971 2976 2982 2991 2993 3001 3009 3015 3022 3027
3106 3099 3092 3085 3077 3069 3062 3055 3047 3045 3044 3039 3031 3023 3012 3007 3001 2990 2984 2979 2974 2972 2970 2969 2968 2964 2962 2961 2963 2963 2965 2964 2966 2963 2963 2968 2974 2978 2983 2992 2997 3004 3012 3016 3023
3107 3100 3092 3085 3078 3068 3063 3056 3048 3045 3044 3044 3034 3025 3015 3009 3006 2998 2989 2984 2977 2973 2970 2970 2966 2962 2958 2956 2960 2959 2962 2961 2964 2966 2966 2968 2969 2974 2981 2986 2994 3001 3007 3011 3018
3107 3101 3093 3085 3079 3071 3064 3057 3050 3047 3046 3048 3037 3031 3021 3016 3011 3000 2995 2985 2979 2976 2974 2973 2965 2961 2956 2957 2957 2957 2957 2958 2962 2965 2968 2971 2975 2966 2977 2986 2990 2995 3001 3007 3013
3107 3101 3094 3088 3080 3072 3063 3058 3054 3052 3054 3050 3045 3032 3023 3018 3012 3006 3001 2988 2980 2977 2976 2973 2970 2963 2961 2957 2958 2957 2957 2957 2960 2965 2969 2969 2972 2968 2972 2976 2979 2985 2993 2998 3006
3107 3103 3096 3089 3083 3073 3066 3060 3059 3059 3062 3055 3042 3032 3028 3020 3012 3006 2999 2987 2986 2979 2976 2974 2970 2964 2961 2957 2956 2955 2955 2954 2955 2962 2961 2962 2969 2971 2970 2972 2974 2977 2984 2990 2996
3107 3102 3096 3090 3084 3077 3068 3064 3060 3065 3060 3052 3043 3036 3033 3022 3017 3013 3008 2999 2994 2989 2984 2979 2974 2967 2966 2964 2959 2953 2955 2954 2948 2952 2958 2963 2963 2970 2971 2972 2970 2971 2978 2983 2989
3108 3104 3099 3093 3087 3080 3070 3062 3068 3064 3059 3050 3043 3039 3035 3030 3024 3018 3012 3008 3001 2995 2994 2988 2982 2979 2971 2966 2961 2956 2957 2957 2954 2949 2957 2963 2968 2970 2969 2967 2969 2970 2974 2979 2984
3109 3104 3100 3094 3088 3083 3074 3067 3069 3065 3059 3052 3048 3042 3036 3030 3026 3021 3017 3014 3008 3002 2999 2996 2989 2982 2975 2968 2965 2960 2960 2959 2958 2953 2951 2965 2969 2970 2965 2967 2968 2968 2969 2974 2978
3109 3104 3099 3094 3089 3084 3073 3072 3069 3065 3060 3056 3051 3046 3042 3035 3030 3026 3023 3019 3012 3005 3001 2997 2995 2989 2982 2974 2972 2964 2965 2966 2964 2964 2960 2958 2974 2974 2971 2967 2965 2967 2966 2968 2972
3108 3104 3099 3094 3090 3080 3078 3075 3071 3067 3062 3057 3051 3046 3042 3037 3032 3028 3025 3021 3016 3009 3002 2999 2996 2991 2990 2987 2983 2981 2974 2972 2970 2972 2969 2968 2975 2971 2969 2965 2965 2967 2966 2965 2967
3109 3104 3099 3094 3089 3085 3082 3078 3074 3068 3064 3059 3054 3049 3044 3038 3035 3031 3027 3023 3018 3012 3006 3003 3001 2994 2990 2992 2988 2982 2980 2976 2976 2976 2979 2975 2977 2971 2967 2966 2966 2966 2964 2964 2964
3109 3104 3099 3096 3091 3088 3084 3080 3074 3070 3066 3061 3057 3051 3046 3041 3036 3033 3029 3025 3021 3016 3011 3007 3005 3004 3004 3003 2999 2993 2988 2983 2980 2981 2984 2984 2980 2975 2972 2969 2967 2965 2963 2962 2961
3111 3107 3101 3097 3091 3088 3085 3080 3075 3071 3067 3061 3056 3051 3047 3043 3038 3035 3031 3028 3023 3017 3013 3009 3007 3005 3003 3001 2999 2998 2993 2989 2986 2986 2985 2984 2980 2975 2970 2967 2963 2962 2961 2959 2959
3112 3107 3102 3097 3092 3088 3085 3081 3076 3072 3068 3063 3059 3055 3050 3044 3041 3034 3031 3027 3024 3020 3014 3010 3008 3005 3002 3000 2999 2997 2995 2992 2988 2985 2984 2980 2978 2973 2970 2966 2964 2962 2961 2959 2958
3114 3107 3103 3098 3092 3089 3085 3080 3076 3071 3068 3064 3059 3054 3049 3045 3038 3034 3030 3027 3024 3020 3015 3011 3008 3005 3003 2999 2997 2997 2994 2991 2988 2985 2982 2978 2976 2971 2969 2966 2964 2962 2959 2957 2957
Wind_Speed
28 27 26 26 25 25 25 25 27 30 31 30 28 28 31 32 34 36 35 29 26 30 34 32 31 26 34 44 44 52 43 60 62 47 39 31 37 39 40 34 34 31 32 22 31
29 28 28 28 27 27 27 28 30 33 29 26 27 31 32 30 27 32 29 18 17 25 29 31 28 27 28 39 44 45 58 67 40 38 38 37 35 36 35 37 38 38 43 31 31
31 31 30 30 30 28 28 31 33 33 30 37 43 48 45 38 24 15 17 22 21 21 22 22 26 28 34 27 47 44 66 38 42 36 33 34 40 34 33 35 41 45 47 43 38
33 33 34 33 30 30 32 32 37 36 32 40 45 49 43 37 9 23 23 23 26 20 17 18 14 15 27 35 36 46 55 50 42 35 36 37 32 40 37 37 28 35 45 44 41
35 36 35 34 32 32 32 34 37 31 31 38 47 45 40 15 22 28 19 20 24 30 28 21 20 15 21 30 27 43 51 51 46 41 39 43 42 38 36 31 27 29 39 39 44
37 38 36 35 33 34 34 36 38 28 33 44 47 44 37 17 28 29 29 25 24 26 26 26 24 21 22 22 24 16 38 44 48 50 47 41 49 44 42 27 34 27 34 37 42
37 38 38 36 36 35 36 36 36 22 33 48 44 39 31 27 27 30 34 33 33 31 27 21 19 24 17 17 21 30 30 33 40 49 40 54 55 47 32 32 33 36 39 34 46
37 39 39 37 36 36 34 36 32 18 35 50 47 40 34 24 31 31 31 24 23 19 23 18 13 20 24 20 19 19 25 24 37 36 50 36 36 49 44 34 33 34 36 43 40
37 39 39 38 35 32 32 34 26 16 37 50 48 27 34 28 34 36 27 30 22 17 10 12 12 17 11 15 16 16 19 19 32 29 37 51 30 23 36 38 33 34 34 39 42
36 39 39 38 33 29 33 32 21 14 32 48 46 30 40 32 33 36 28 25 21 20 7 3 5 9 12 16 16 13 14 12 17 31 26 39 38 23 25 36 36 27 28 35 42
36 38 39 39 34 30 33 34 26 13 28 47 40 32 30 27 30 27 31 20 19 14 10 2 3 4 10 8 13 15 18 19 10 18 26 31 37 41 22 35 31 30 28 30 33
34 37 40 40 36 31 29 31 16 5 20 42 42 41 25 29 32 32 30 20 19 17 13 5 6 11 11 14 13 13 14 24 18 14 14 31 29 39 41 34 40 31 34 30 28
33 36 39 40 36 31 21 34 18 7 14 32 42 42 39 28 28 41 27 28 16 17 11 11 14 10 11 14 13 16 14 17 18 7 3 20 23 21 30 39 27 24 26 29 30
31 35 38 41 39 37 19 34 18 9 8 30 42 39 41 31 29 33 40 20 20 12 11 9 23 10 14 4 9 14 13 17 15 11 4 8 11 32 23 33 29 33 26 26 27
30 33 36 40 40 36 23 29 20 8 8 25 37 37 29 29 25 34 38 17 18 15 16 15 34 18 16 3 5 9 8 14 15 14 11 9 4 15 36 31 33 31 24 25 23
29 31 34 37 40 36 28 11 27 11 6 23 32 34 34 31 24 26 35 43 27 12 18 17 26 14 29 5 8 9 11 13 13 12 9 15 9 12 13 18 26 34 28 24 29
28 28 32 34 38 34 33 17 10 13 13 24 33 33 26 34 36 31 40 45 39 23 25 18 14 22 30 9 3 12 12 6 8 8 3 18 8 3 2 3 22 34 40 33 29
27 27 31 32 35 38 37 22 13 9 16 28 24 29 21 35 30 28 25 38 37 31 14 19 13 35 27 22 19 14 4 6 4 5 7 13 6 6 4 2 14 25 40 42 41
25 22 27 30 32 33 38 30 16 15 23 27 19 25 22 30 18 23 22 34 35 33 19 18 11 26 26 19 20 8 5 7 5 4 6 8 5 2 4 5 4 24 30 40 44
24 21 24 29 26 31 36 30 22 26 26 26 20 23 18 29 27 22 25 23 38 29 17 15 10 23 28 20 25 17 18 6 7 5 6 6 6 12 11 3 3 7 23 37 39
23 23 22 28 25 30 35 27 28 29 28 24 25 21 22 25 25 18 20 13 34 32 19 16 8 15 22 34 34 29 16 9 7 5 4 4 5 13 14 12 5 7 7 21 39
24 25 18 28 29 32 31 28 27 27 27 27 26 25 24 26 18 19 20 22 27 30 23 19 10 8 13 19 25 31 22 13 7 7 8 6 3 18 15 11 10 11 7 10 25
26 24 20 28 24 28 25 27 24 27 27 24 26 25 27 21 13 21 21 21 25 27 23 22 11 11 4 10 22 25 29 13 10 5 12 7 4 17 15 12 12 11 10 8 20
28 25 27 28 23 23 24 25 26 23 24 24 25 26 27 21 22 18 21 20 21 24 20 12 11 6 6 3 11 19 24 23 9 6 5 4 11 13 11 8 9 9 9 11 10
29 26 26 25 25 23 22 22 24 25 24 27 23 27 26 20 19 19 18 17 17 24 23 16 11 7 4 6 5 13 18 17 17 9 4 5 7 16 17 14 10 10 10 9 9
29 29 29 27 23 22 22 22 22 23 22 24 24 25 25 24 22 21 17 16 17 21 23 23 13 8 7 12 6 7 17 13 13 14 6 8 7 15 15 14 12 11 9 9 9
36 28 28 31 24 24 24 22 23 22 20 23 25 25 26 27 22 15 13 14 14 19 22 22 21 10 6 10 6 5 17 15 11 13 15 13 15 15 12 13 13 10 9 9 10
Wind_Direction
13 13 8 6 3 357 355 355 355 354 350 343 341 336 332 328 320 311 307 297 272 257 251 252 246 245 229 220 211 210 222 232 231 228 230 224 228 236 233 220 225 223 231 216 216
13 13 11 9 5 1 359 358 358 356 351 353 350 343 339 334 318 306 300 292 273 260 256 261 251 237 229 228 217 215 221 231 234 234 232 227 227 228 228 222 213 217 222 212 215
14 15 13 12 7 1 0 2 357 356 0 358 354 349 346 341 341 297 291 294 284 274 270 268 262 253 227 231 221 224 229 238 237 232 226 228 227 227 221 221 213 217 225 228 230
14 16 14 11 6 3 3 359 359 360 5 359 352 348 343 340 313 293 301 294 287 283 282 283 281 267 246 235 232 233 229 232 231 235 233 223 220 233 224 227 224 222 235 236 234
15 16 13 10 7 5 3 0 359 4 6 358 353 347 343 345 320 319 318 305 289 291 292 275 273 274 263 247 246 228 234 237 233 221 219 218 225 227 233 220 217 216 228 226 232
15 14 12 10 8 6 4 360 360 4 5 358 352 349 357 340 331 331 330 322 303 291 288 285 262 263 265 267 263 231 232 241 230 242 235 238 222 220 227 230 212 217 214 219 232
16 13 13 11 9 6 3 359 358 7 6 358 354 1 354 350 344 334 322 310 300 288 281 282 273 249 254 273 264 256 263 243 222 226 234 229 238 209 213 222 224 215 216 213 222
17 14 14 13 8 8 0 356 357 9 8 354 359 355 4 353 345 339 337 340 334 310 271 269 266 243 243 258 270 284 268 267 234 216 235 226 229 236 223 211 221 223 218 215 220
18 17 15 14 10 7 2 356 356 11 10 360 359 7 356 355 354 349 346 345 348 343 302 244 256 243 240 235 254 257 264 268 237 234 231 231 239 218 210 209 218 220 215 217 220
18 17 16 13 11 8 4 1 1 21 11 6 360 11 355 2 2 347 353 353 356 16 348 291 229 225 226 233 244 250 254 271 243 223 219 225 236 216 212 203 205 213 213 212 219
17 17 16 13 13 8 6 2 12 16 11 12 7 12 353 359 9 1 3 1 28 13 12 280 234 237 243 263 246 265 284 291 284 225 227 219 235 239 222 217 211 216 216 214 216
14 16 15 13 15 10 9 5 9 9 8 7 9 14 13 8 2 16 17 16 20 16 26 62 29 320 278 266 270 266 272 268 285 289 232 220 223 231 227 206 208 205 204 213 213
12 14 15 14 17 14 7 10 17 17 18 360 4 9 17 17 8 12 12 21 13 18 19 30 353 327 309 277 253 248 247 258 255 312 352 207 226 218 220 224 227 207 214 218 217
12 13 15 14 16 18 13 20 16 36 39 356 7 8 16 19 18 11 15 14 15 6 26 9 360 0 336 262 231 247 245 259 246 259 298 162 234 226 213 213 217 208 214 208 220
11 13 15 15 16 18 20 28 20 30 15 352 6 9 23 14 0 19 10 24 18 26 12 356 7 19 18 312 235 232 234 214 236 225 255 262 291 225 208 211 215 214 210 217 224
11 11 14 15 16 22 26 26 32 41 13 0 5 5 11 14 11 11 11 24 22 31 16 346 12 20 2 357 239 300 245 227 193 185 235 232 223 45 188 214 206 200 201 199 207
7 10 15 15 17 22 32 41 31 44 352 349 2 11 2 12 20 11 13 16 22 360 356 11 360 14 11 31 273 355 197 201 159 183 224 183 192 49 356 213 204 199 201 200 202
5 7 12 15 18 22 33 37 59 345 360 9 8 18 3 4 18 11 14 18 17 15 346 2 12 5 2 19 335 20 46 340 185 157 142 149 143 100 52 6 220 206 204 210 211
7 5 13 14 17 19 34 46 44 18 6 6 22 13 10 7 4 11 18 17 13 12 7 351 359 2 8 19 28 354 6 5 303 187 140 127 87 176 12 53 248 231 217 218 216
7 7 15 15 15 17 33 51 43 32 23 21 8 7 356 2 9 13 11 5 11 11 9 346 321 4 10 37 39 35 21 27 3 193 182 91 71 356 357 318 320 235 220 220 218
9 9 14 12 11 19 41 42 35 29 25 19 13 5 3 358 14 9 7 10 7 13 8 355 348 351 22 27 23 22 17 10 350 24 328 153 89 348 335 339 329 312 227 221 220
12 15 13 11 15 23 31 29 29 27 24 20 15 10 4 6 8 9 7 8 9 11 5 356 356 330 28 40 30 31 20 23 359 9 9 331 69 353 339 334 318 304 312 228 226
13 12 12 11 15 17 19 24 23 22 22 17 14 12 4 2 359 4 13 13 15 12 12 23 2 345 16 18 16 24 31 30 59 58 14 328 8 335 339 327 306 295 303 273 221
12 12 12 8 9 11 13 14 14 14 16 15 12 11 8 6 357 358 1 9 15 19 18 24 22 36 63 24 14 10 26 42 73 57 32 21 321 343 346 330 302 298 297 283 244
12 14 12 0 3 4 6 4 6 7 8 10 6 6 1 359 359 351 356 359 9 16 21 24 20 6 339 295 320 6 17 27 44 39 54 310 324 352 353 350 334 314 304 292 277
7 10 10 6 0 359 357 358 355 357 359 2 4 5 2 355 350 340 346 350 358 9 13 17 12 356 339 341 301 282 357 18 23 32 4 15 326 350 348 351 344 322 301 291 291
5 0 3 5 1 357 353 346 346 344 350 352 355 356 359 357 351 343 343 340 338 353 4 5 8 11 335 344 337 286 341 356 354 6 4 0 348 352 355 352 349 336 313 288 286